owner,sensor,date,latitude,longitude,vertical_datum,mass_concentration_of_oxygen_in_sea_water,qcFlag 
DISL,ioos:station:DISL:DISL:1,2009-12-01T00:00:00Z,30.2513,-88.0778,7.57,10.03,1111122 
DISL,ioos:station:DISL:DISL:1,2009-12-01T00:30:00Z,30.2513,-88.0778,7.51,10.41,1111122 
DISL,ioos:station:DISL:DISL:1,2009-12-01T01:00:00Z,30.2513,-88.0778,7.77,9.87,1111122 
DISL,ioos:station:DISL:DISL:1,2009-12-01T01:30:00Z,30.2513,-88.0778,7.59,9.72,1111122 
DISL,ioos:station:DISL:DISL:1,2009-12-01T02:00:00Z,30.2513,-88.0778,7.76,9.55,1111122 
DISL,ioos:station:DISL:DISL:1,2009-12-01T02:30:00Z,30.2513,-88.0778,7.5,9.41,1111122 
DISL,ioos:station:DISL:DISL:1,2009-12-01T03:00:00Z,30.2513,-88.0778,7.46,9.24,1111122 
DISL,ioos:station:DISL:DISL:1,2009-12-01T03:30:00Z,30.2513,-88.0778,7.27,9.24,1111122 
DISL,ioos:station:DISL:DISL:1,2009-12-01T04:00:00Z,30.2513,-88.0778,7.29,9.23,1111122 
DISL,ioos:station:DISL:DISL:1,2009-12-01T04:30:00Z,30.2513,-88.0778,7.39,9.21,1111122 
DISL,ioos:station:DISL:DISL:1,2009-12-01T05:00:00Z,30.2513,-88.0778,7.11,9.19,1111122 
DISL,ioos:station:DISL:DISL:1,2009-12-01T05:30:00Z,30.2513,-88.0778,6.553,9.18,1111122 
DISL,ioos:station:DISL:DISL:1,2009-12-01T06:00:00Z,30.2513,-88.0778,6.643,9.19,1111122 
DISL,ioos:station:DISL:DISL:1,2009-12-01T06:30:00Z,30.2513,-88.0778,6.549,9.16,1111122 
DISL,ioos:station:DISL:DISL:1,2009-12-01T07:00:00Z,30.2513,-88.0778,6.368,9.25,1111122 
DISL,ioos:station:DISL:DISL:1,2009-12-01T07:30:00Z,30.2513,-88.0778,6.077,9.26,1111122 
DISL,ioos:station:DISL:DISL:1,2009-12-01T08:00:00Z,30.2513,-88.0778,6.559,9.18,1111122 
DISL,ioos:station:DISL:DISL:1,2009-12-01T08:30:00Z,30.2513,-88.0778,5.889,9.14,1111122 
DISL,ioos:station:DISL:DISL:1,2009-12-01T09:00:00Z,30.2513,-88.0778,5.934,9.13,1111122 
DISL,ioos:station:DISL:DISL:1,2009-12-01T09:30:00Z,30.2513,-88.0778,6.356,9.05,1111122 
DISL,ioos:station:DISL:DISL:1,2009-12-01T10:00:00Z,30.2513,-88.0778,5.97,9.0,1111122 
DISL,ioos:station:DISL:DISL:1,2009-12-01T10:30:00Z,30.2513,-88.0778,5.869,8.97,1111122 
DISL,ioos:station:DISL:DISL:1,2009-12-01T11:00:00Z,30.2513,-88.0778,5.677,8.67,1111122 
DISL,ioos:station:DISL:DISL:1,2009-12-01T11:30:00Z,30.2513,-88.0778,5.577,8.61,1111122 
DISL,ioos:station:DISL:DISL:1,2009-12-01T12:00:00Z,30.2513,-88.0778,5.321,8.61,1111122 
DISL,ioos:station:DISL:DISL:1,2009-12-01T12:30:00Z,30.2513,-88.0778,5.625,8.56,1111122 
DISL,ioos:station:DISL:DISL:1,2009-12-01T13:00:00Z,30.2513,-88.0778,5.786,8.62,1111122 
DISL,ioos:station:DISL:DISL:1,2009-12-01T13:30:00Z,30.2513,-88.0778,5.59,8.56,1111122 
DISL,ioos:station:DISL:DISL:1,2009-12-01T14:00:00Z,30.2513,-88.0778,5.6,8.53,1111122 
DISL,ioos:station:DISL:DISL:1,2009-12-01T14:30:00Z,30.2513,-88.0778,5.641,8.62,1111122 
DISL,ioos:station:DISL:DISL:1,2009-12-01T15:00:00Z,30.2513,-88.0778,5.651,8.63,1111122 
DISL,ioos:station:DISL:DISL:1,2009-12-01T15:30:00Z,30.2513,-88.0778,5.803,8.6,1111122 
DISL,ioos:station:DISL:DISL:1,2009-12-01T16:00:00Z,30.2513,-88.0778,5.767,8.32,1111122 
DISL,ioos:station:DISL:DISL:1,2009-12-01T16:30:00Z,30.2513,-88.0778,5.949,8.15,1111122 
DISL,ioos:station:DISL:DISL:1,2009-12-01T17:00:00Z,30.2513,-88.0778,6.062,8.11,1111122 
DISL,ioos:station:DISL:DISL:1,2009-12-01T17:30:00Z,30.2513,-88.0778,6.058,8.19,1111122 
DISL,ioos:station:DISL:DISL:1,2009-12-01T18:00:00Z,30.2513,-88.0778,6.066,8.26,1111122 
DISL,ioos:station:DISL:DISL:1,2009-12-01T18:30:00Z,30.2513,-88.0778,6.222,8.39,1111122 
DISL,ioos:station:DISL:DISL:1,2009-12-01T19:00:00Z,30.2513,-88.0778,6.286,8.56,1111122 
DISL,ioos:station:DISL:DISL:1,2009-12-01T19:30:00Z,30.2513,-88.0778,6.498,6.7,1111122 
DISL,ioos:station:DISL:DISL:1,2009-12-01T20:00:00Z,30.2513,-88.0778,6.713,6.16,1111122 
DISL,ioos:station:DISL:DISL:1,2009-12-01T20:30:00Z,30.2513,-88.0778,6.758,5.95,1111122 
DISL,ioos:station:DISL:DISL:1,2009-12-01T21:00:00Z,30.2513,-88.0778,6.484,5.83,1111122 
DISL,ioos:station:DISL:DISL:1,2009-12-01T21:30:00Z,30.2513,-88.0778,7.07,5.66,1111122 
DISL,ioos:station:DISL:DISL:1,2009-12-01T22:00:00Z,30.2513,-88.0778,6.957,5.69,1111122 
DISL,ioos:station:DISL:DISL:1,2009-12-01T22:30:00Z,30.2513,-88.0778,6.982,5.8,1111122 
DISL,ioos:station:DISL:DISL:1,2009-12-01T23:00:00Z,30.2513,-88.0778,7.55,5.75,1111122 
DISL,ioos:station:DISL:DISL:1,2009-12-01T23:30:00Z,30.2513,-88.0778,7.28,5.76,1111122 
DISL,ioos:station:DISL:DISL:1,2009-12-02T00:00:00Z,30.2513,-88.0778,7.94,6.01,1111122 
DISL,ioos:station:DISL:DISL:1,2009-12-02T00:30:00Z,30.2513,-88.0778,7.75,5.87,1111122 
DISL,ioos:station:DISL:DISL:1,2009-12-02T01:00:00Z,30.2513,-88.0778,7.88,6.43,1111122 
DISL,ioos:station:DISL:DISL:1,2009-12-02T01:30:00Z,30.2513,-88.0778,8.28,6.65,1111122 
DISL,ioos:station:DISL:DISL:1,2009-12-02T02:00:00Z,30.2513,-88.0778,8.19,6.65,1111122 
DISL,ioos:station:DISL:DISL:1,2009-12-02T02:30:00Z,30.2513,-88.0778,8.36,6.68,1111122 
DISL,ioos:station:DISL:DISL:1,2009-12-02T03:00:00Z,30.2513,-88.0778,8.56,6.82,1111122 
DISL,ioos:station:DISL:DISL:1,2009-12-02T03:30:00Z,30.2513,-88.0778,8.42,6.28,1111122 
DISL,ioos:station:DISL:DISL:1,2009-12-02T04:00:00Z,30.2513,-88.0778,8.17,6.34,1111122 
DISL,ioos:station:DISL:DISL:1,2009-12-02T04:30:00Z,30.2513,-88.0778,8.54,6.3,1111122 
DISL,ioos:station:DISL:DISL:1,2009-12-02T05:00:00Z,30.2513,-88.0778,8.7,7.18,1111122 
DISL,ioos:station:DISL:DISL:1,2009-12-02T05:30:00Z,30.2513,-88.0778,8.52,8.19,1111122 
DISL,ioos:station:DISL:DISL:1,2009-12-02T06:00:00Z,30.2513,-88.0778,8.03,8.18,1111122 
DISL,ioos:station:DISL:DISL:1,2009-12-02T06:30:00Z,30.2513,-88.0778,8.03,7.13,1111122 
DISL,ioos:station:DISL:DISL:1,2009-12-02T07:00:00Z,30.2513,-88.0778,8.32,7.78,1111122 
DISL,ioos:station:DISL:DISL:1,2009-12-02T07:30:00Z,30.2513,-88.0778,8.41,8.02,1111122 
DISL,ioos:station:DISL:DISL:1,2009-12-02T08:00:00Z,30.2513,-88.0778,8.13,8.15,1111122 
DISL,ioos:station:DISL:DISL:1,2009-12-02T08:30:00Z,30.2513,-88.0778,7.86,8.1,1111122 
DISL,ioos:station:DISL:DISL:1,2009-12-02T09:00:00Z,30.2513,-88.0778,7.67,7.67,1111122 
DISL,ioos:station:DISL:DISL:1,2009-12-02T09:30:00Z,30.2513,-88.0778,7.45,7.51,1111122 
DISL,ioos:station:DISL:DISL:1,2009-12-02T10:00:00Z,30.2513,-88.0778,7.28,7.34,1111122 
DISL,ioos:station:DISL:DISL:1,2009-12-02T10:30:00Z,30.2513,-88.0778,7.36,7.24,1111122 
DISL,ioos:station:DISL:DISL:1,2009-12-02T11:00:00Z,30.2513,-88.0778,6.887,7.24,1111122 
DISL,ioos:station:DISL:DISL:1,2009-12-02T11:30:00Z,30.2513,-88.0778,7.14,7.34,1111122 
DISL,ioos:station:DISL:DISL:1,2009-12-02T12:00:00Z,30.2513,-88.0778,6.915,7.38,1111122 
DISL,ioos:station:DISL:DISL:1,2009-12-02T12:30:00Z,30.2513,-88.0778,7.07,7.79,1111122 
DISL,ioos:station:DISL:DISL:1,2009-12-02T13:00:00Z,30.2513,-88.0778,6.867,8.1,1111122 
DISL,ioos:station:DISL:DISL:1,2009-12-02T13:30:00Z,30.2513,-88.0778,6.743,8.05,1111122 
DISL,ioos:station:DISL:DISL:1,2009-12-02T14:00:00Z,30.2513,-88.0778,6.723,8.17,1111122 
DISL,ioos:station:DISL:DISL:1,2009-12-02T14:30:00Z,30.2513,-88.0778,6.711,8.34,1111122 
DISL,ioos:station:DISL:DISL:1,2009-12-02T15:00:00Z,30.2513,-88.0778,6.729,8.47,1111122 
DISL,ioos:station:DISL:DISL:1,2009-12-02T15:30:00Z,30.2513,-88.0778,6.907,8.26,1111122 
DISL,ioos:station:DISL:DISL:1,2009-12-02T16:00:00Z,30.2513,-88.0778,6.808,7.94,1111122 
DISL,ioos:station:DISL:DISL:1,2009-12-02T16:30:00Z,30.2513,-88.0778,6.535,8.14,1111122 
DISL,ioos:station:DISL:DISL:1,2009-12-02T17:00:00Z,30.2513,-88.0778,6.416,7.91,1111122 
DISL,ioos:station:DISL:DISL:1,2009-12-02T17:30:00Z,30.2513,-88.0778,6.56,7.85,1111122 
DISL,ioos:station:DISL:DISL:1,2009-12-02T18:00:00Z,30.2513,-88.0778,6.788,7.75,1111122 
DISL,ioos:station:DISL:DISL:1,2009-12-02T18:30:00Z,30.2513,-88.0778,7.09,8.0,1111122 
DISL,ioos:station:DISL:DISL:1,2009-12-02T19:00:00Z,30.2513,-88.0778,7.15,7.92,1111122 
DISL,ioos:station:DISL:DISL:1,2009-12-02T19:30:00Z,30.2513,-88.0778,7.03,7.93,1111122 
DISL,ioos:station:DISL:DISL:1,2009-12-02T20:00:00Z,30.2513,-88.0778,6.939,8.06,1111122 
DISL,ioos:station:DISL:DISL:1,2009-12-02T20:30:00Z,30.2513,-88.0778,7.21,8.35,1111122 
DISL,ioos:station:DISL:DISL:1,2009-12-02T21:00:00Z,30.2513,-88.0778,7.33,8.01,1111122 
DISL,ioos:station:DISL:DISL:1,2009-12-02T21:30:00Z,30.2513,-88.0778,7.55,7.7,1111122 
DISL,ioos:station:DISL:DISL:1,2009-12-02T22:00:00Z,30.2513,-88.0778,7.67,7.1,1111122 
DISL,ioos:station:DISL:DISL:1,2009-12-02T22:30:00Z,30.2513,-88.0778,7.6,7.04,1111122 
DISL,ioos:station:DISL:DISL:1,2009-12-02T23:00:00Z,30.2513,-88.0778,7.55,7.95,1111122 
DISL,ioos:station:DISL:DISL:1,2009-12-02T23:30:00Z,30.2513,-88.0778,7.64,8.16,1111122 
DISL,ioos:station:DISL:DISL:1,2009-12-03T00:00:00Z,30.2513,-88.0778,7.86,8.15,1111122 
DISL,ioos:station:DISL:DISL:1,2009-12-03T00:30:00Z,30.2513,-88.0778,8.13,8.18,1111122 
DISL,ioos:station:DISL:DISL:1,2009-12-03T01:00:00Z,30.2513,-88.0778,8.19,8.38,1111122 
DISL,ioos:station:DISL:DISL:1,2009-12-03T01:30:00Z,30.2513,-88.0778,8.13,8.11,1111122 
DISL,ioos:station:DISL:DISL:1,2009-12-03T02:00:00Z,30.2513,-88.0778,8.04,8.17,1111122 
DISL,ioos:station:DISL:DISL:1,2009-12-03T02:30:00Z,30.2513,-88.0778,8.1,8.06,1111122 
DISL,ioos:station:DISL:DISL:1,2009-12-03T03:00:00Z,30.2513,-88.0778,8.1,8.17,1111122 
DISL,ioos:station:DISL:DISL:1,2009-12-03T03:30:00Z,30.2513,-88.0778,8.2,8.3,1111122 
DISL,ioos:station:DISL:DISL:1,2009-12-03T04:00:00Z,30.2513,-88.0778,8.02,7.6,1111122 
DISL,ioos:station:DISL:DISL:1,2009-12-03T04:30:00Z,30.2513,-88.0778,8.01,7.52,1111122 
DISL,ioos:station:DISL:DISL:1,2009-12-03T05:00:00Z,30.2513,-88.0778,7.99,7.82,1111122 
DISL,ioos:station:DISL:DISL:1,2009-12-03T05:30:00Z,30.2513,-88.0778,7.83,7.75,1111122 
DISL,ioos:station:DISL:DISL:1,2009-12-03T06:00:00Z,30.2513,-88.0778,7.76,8.12,1111122 
DISL,ioos:station:DISL:DISL:1,2009-12-03T06:30:00Z,30.2513,-88.0778,7.6,8.14,1111122 
DISL,ioos:station:DISL:DISL:1,2009-12-03T07:00:00Z,30.2513,-88.0778,7.48,8.11,1111122 
DISL,ioos:station:DISL:DISL:1,2009-12-03T07:30:00Z,30.2513,-88.0778,7.32,8.1,1111122 
DISL,ioos:station:DISL:DISL:1,2009-12-03T08:00:00Z,30.2513,-88.0778,7.14,8.04,1111122 
DISL,ioos:station:DISL:DISL:1,2009-12-03T08:30:00Z,30.2513,-88.0778,7.03,7.86,1111122 
DISL,ioos:station:DISL:DISL:1,2009-12-03T09:00:00Z,30.2513,-88.0778,6.891,7.83,1111122 
DISL,ioos:station:DISL:DISL:1,2009-12-03T09:30:00Z,30.2513,-88.0778,6.685,7.66,1111122 
DISL,ioos:station:DISL:DISL:1,2009-12-03T10:00:00Z,30.2513,-88.0778,6.622,7.39,1111122 
DISL,ioos:station:DISL:DISL:1,2009-12-03T10:30:00Z,30.2513,-88.0778,6.409,7.6,1111122 
DISL,ioos:station:DISL:DISL:1,2009-12-03T11:00:00Z,30.2513,-88.0778,6.308,7.85,1111122 
DISL,ioos:station:DISL:DISL:1,2009-12-03T11:30:00Z,30.2513,-88.0778,6.168,7.97,1111122 
DISL,ioos:station:DISL:DISL:1,2009-12-03T12:00:00Z,30.2513,-88.0778,6.158,8.09,1111122 
DISL,ioos:station:DISL:DISL:1,2009-12-03T12:30:00Z,30.2513,-88.0778,5.93,8.17,1111122 
DISL,ioos:station:DISL:DISL:1,2009-12-03T13:00:00Z,30.2513,-88.0778,5.967,8.3,1111122 
DISL,ioos:station:DISL:DISL:1,2009-12-03T13:30:00Z,30.2513,-88.0778,5.836,8.38,1111122 
DISL,ioos:station:DISL:DISL:1,2009-12-03T14:00:00Z,30.2513,-88.0778,5.754,8.46,1111122 
DISL,ioos:station:DISL:DISL:1,2009-12-03T14:30:00Z,30.2513,-88.0778,5.717,8.49,1111122 
DISL,ioos:station:DISL:DISL:1,2009-12-03T15:00:00Z,30.2513,-88.0778,5.73,8.56,1111122 
DISL,ioos:station:DISL:DISL:1,2009-12-03T15:30:00Z,30.2513,-88.0778,5.612,8.59,1111122 
DISL,ioos:station:DISL:DISL:1,2009-12-03T16:00:00Z,30.2513,-88.0778,5.732,8.61,1111122 
DISL,ioos:station:DISL:DISL:1,2009-12-03T16:30:00Z,30.2513,-88.0778,5.608,8.76,1111122 
DISL,ioos:station:DISL:DISL:1,2009-12-03T17:00:00Z,30.2513,-88.0778,5.66,8.84,1111122 
DISL,ioos:station:DISL:DISL:1,2009-12-03T17:30:00Z,30.2513,-88.0778,5.672,8.89,1111122 
DISL,ioos:station:DISL:DISL:1,2009-12-03T18:00:00Z,30.2513,-88.0778,5.786,8.87,1111122 
DISL,ioos:station:DISL:DISL:1,2009-12-03T18:30:00Z,30.2513,-88.0778,5.892,8.77,1111122 
DISL,ioos:station:DISL:DISL:1,2009-12-03T19:00:00Z,30.2513,-88.0778,5.996,0.0,1114422 
DISL,ioos:station:DISL:DISL:1,2009-12-03T19:30:00Z,30.2513,-88.0778,5.996,8.43,1111122 
DISL,ioos:station:DISL:DISL:1,2009-12-03T20:00:00Z,30.2513,-88.0778,5.992,8.56,1111122 
DISL,ioos:station:DISL:DISL:1,2009-12-03T20:30:00Z,30.2513,-88.0778,6.121,8.52,1111122 
DISL,ioos:station:DISL:DISL:1,2009-12-03T21:00:00Z,30.2513,-88.0778,6.332,8.89,1111122 
DISL,ioos:station:DISL:DISL:1,2009-12-03T21:30:00Z,30.2513,-88.0778,6.41,8.88,1111122 
DISL,ioos:station:DISL:DISL:1,2009-12-03T22:00:00Z,30.2513,-88.0778,6.563,8.97,1111122 
DISL,ioos:station:DISL:DISL:1,2009-12-03T22:30:00Z,30.2513,-88.0778,6.604,8.48,1111122 
DISL,ioos:station:DISL:DISL:1,2009-12-03T23:00:00Z,30.2513,-88.0778,6.709,8.48,1111122 
DISL,ioos:station:DISL:DISL:1,2009-12-03T23:30:00Z,30.2513,-88.0778,6.802,7.72,1111122 
DISL,ioos:station:DISL:DISL:1,2009-12-04T00:00:00Z,30.2513,-88.0778,7.0,8.05,1111122 
DISL,ioos:station:DISL:DISL:1,2009-12-04T00:30:00Z,30.2513,-88.0778,7.06,8.4,1111122 
DISL,ioos:station:DISL:DISL:1,2009-12-04T01:00:00Z,30.2513,-88.0778,7.24,8.42,1111122 
DISL,ioos:station:DISL:DISL:1,2009-12-04T01:30:00Z,30.2513,-88.0778,7.37,8.18,1111122 
DISL,ioos:station:DISL:DISL:1,2009-12-04T02:00:00Z,30.2513,-88.0778,7.49,7.53,1111122 
DISL,ioos:station:DISL:DISL:1,2009-12-04T02:30:00Z,30.2513,-88.0778,7.53,7.77,1111122 
DISL,ioos:station:DISL:DISL:1,2009-12-04T03:00:00Z,30.2513,-88.0778,7.62,7.77,1111122 
DISL,ioos:station:DISL:DISL:1,2009-12-04T03:30:00Z,30.2513,-88.0778,7.67,7.84,1111122 
DISL,ioos:station:DISL:DISL:1,2009-12-04T04:00:00Z,30.2513,-88.0778,7.7,8.78,1111122 
DISL,ioos:station:DISL:DISL:1,2009-12-04T04:30:00Z,30.2513,-88.0778,7.63,8.89,1111122 
DISL,ioos:station:DISL:DISL:1,2009-12-04T05:00:00Z,30.2513,-88.0778,7.61,8.85,1111122 
DISL,ioos:station:DISL:DISL:1,2009-12-04T05:30:00Z,30.2513,-88.0778,7.58,8.85,1111122 
DISL,ioos:station:DISL:DISL:1,2009-12-04T06:00:00Z,30.2513,-88.0778,7.48,8.83,1111122 
DISL,ioos:station:DISL:DISL:1,2009-12-04T06:30:00Z,30.2513,-88.0778,7.49,8.95,1111122 
DISL,ioos:station:DISL:DISL:1,2009-12-04T07:00:00Z,30.2513,-88.0778,7.36,8.85,1111122 
DISL,ioos:station:DISL:DISL:1,2009-12-04T07:30:00Z,30.2513,-88.0778,7.23,8.86,1111122 
DISL,ioos:station:DISL:DISL:1,2009-12-04T08:00:00Z,30.2513,-88.0778,7.14,8.99,1111122 
DISL,ioos:station:DISL:DISL:1,2009-12-04T08:30:00Z,30.2513,-88.0778,7.04,9.02,1111122 
DISL,ioos:station:DISL:DISL:1,2009-12-04T09:00:00Z,30.2513,-88.0778,6.935,9.01,1111122 
DISL,ioos:station:DISL:DISL:1,2009-12-04T09:30:00Z,30.2513,-88.0778,6.792,8.98,1111122 
DISL,ioos:station:DISL:DISL:1,2009-12-04T10:00:00Z,30.2513,-88.0778,6.608,8.95,1111122 
DISL,ioos:station:DISL:DISL:1,2009-12-04T10:30:00Z,30.2513,-88.0778,6.468,8.98,1111122 
DISL,ioos:station:DISL:DISL:1,2009-12-04T11:00:00Z,30.2513,-88.0778,6.471,8.98,1111122 
DISL,ioos:station:DISL:DISL:1,2009-12-04T11:30:00Z,30.2513,-88.0778,6.181,8.99,1111122 
DISL,ioos:station:DISL:DISL:1,2009-12-04T12:00:00Z,30.2513,-88.0778,5.757,8.99,1111122 
DISL,ioos:station:DISL:DISL:1,2009-12-04T12:30:00Z,30.2513,-88.0778,5.965,9.02,1111122 
DISL,ioos:station:DISL:DISL:1,2009-12-04T13:00:00Z,30.2513,-88.0778,5.913,9.04,1111122 
DISL,ioos:station:DISL:DISL:1,2009-12-04T13:30:00Z,30.2513,-88.0778,5.691,9.01,1111122 
DISL,ioos:station:DISL:DISL:1,2009-12-04T14:00:00Z,30.2513,-88.0778,5.636,9.01,1111122 
DISL,ioos:station:DISL:DISL:1,2009-12-04T14:30:00Z,30.2513,-88.0778,5.561,9.0,1111122 
DISL,ioos:station:DISL:DISL:1,2009-12-04T15:00:00Z,30.2513,-88.0778,5.413,8.92,1111122 
DISL,ioos:station:DISL:DISL:1,2009-12-04T15:30:00Z,30.2513,-88.0778,5.337,8.98,1111122 
DISL,ioos:station:DISL:DISL:1,2009-12-04T16:00:00Z,30.2513,-88.0778,5.321,9.06,1111122 
DISL,ioos:station:DISL:DISL:1,2009-12-04T16:30:00Z,30.2513,-88.0778,5.233,8.99,1111122 
DISL,ioos:station:DISL:DISL:1,2009-12-04T17:00:00Z,30.2513,-88.0778,5.29,9.28,1111122 
DISL,ioos:station:DISL:DISL:1,2009-12-04T17:30:00Z,30.2513,-88.0778,5.276,9.2,1111122 
DISL,ioos:station:DISL:DISL:1,2009-12-04T18:00:00Z,30.2513,-88.0778,5.324,9.22,1111122 
DISL,ioos:station:DISL:DISL:1,2009-12-04T18:30:00Z,30.2513,-88.0778,5.457,9.2,1111122 
DISL,ioos:station:DISL:DISL:1,2009-12-04T19:00:00Z,30.2513,-88.0778,5.334,9.23,1111122 
DISL,ioos:station:DISL:DISL:1,2009-12-04T19:30:00Z,30.2513,-88.0778,5.463,9.23,1111122 
DISL,ioos:station:DISL:DISL:1,2009-12-04T20:00:00Z,30.2513,-88.0778,5.682,9.01,1111122 
DISL,ioos:station:DISL:DISL:1,2009-12-04T20:30:00Z,30.2513,-88.0778,5.766,8.56,1111122 
DISL,ioos:station:DISL:DISL:1,2009-12-04T21:00:00Z,30.2513,-88.0778,5.808,8.81,1111122 
DISL,ioos:station:DISL:DISL:1,2009-12-04T21:30:00Z,30.2513,-88.0778,5.897,8.69,1111122 
DISL,ioos:station:DISL:DISL:1,2009-12-04T22:00:00Z,30.2513,-88.0778,5.989,8.97,1111122 
DISL,ioos:station:DISL:DISL:1,2009-12-04T22:30:00Z,30.2513,-88.0778,5.984,9.15,1111122 
DISL,ioos:station:DISL:DISL:1,2009-12-04T23:00:00Z,30.2513,-88.0778,6.332,9.25,1111122 
DISL,ioos:station:DISL:DISL:1,2009-12-04T23:30:00Z,30.2513,-88.0778,6.629,8.84,1111122 
DISL,ioos:station:DISL:DISL:1,2009-12-05T00:00:00Z,30.2513,-88.0778,6.23,8.27,1111122 
DISL,ioos:station:DISL:DISL:1,2009-12-05T00:30:00Z,30.2513,-88.0778,6.335,8.32,1111122 
DISL,ioos:station:DISL:DISL:1,2009-12-05T01:00:00Z,30.2513,-88.0778,6.732,7.79,1111122 
DISL,ioos:station:DISL:DISL:1,2009-12-05T01:30:00Z,30.2513,-88.0778,6.936,7.42,1111122 
DISL,ioos:station:DISL:DISL:1,2009-12-05T02:00:00Z,30.2513,-88.0778,7.01,7.99,1111122 
DISL,ioos:station:DISL:DISL:1,2009-12-05T02:30:00Z,30.2513,-88.0778,7.28,7.5,1111122 
DISL,ioos:station:DISL:DISL:1,2009-12-05T03:00:00Z,30.2513,-88.0778,7.16,8.63,1111122 
DISL,ioos:station:DISL:DISL:1,2009-12-05T03:30:00Z,30.2513,-88.0778,7.42,9.22,1111122 
DISL,ioos:station:DISL:DISL:1,2009-12-05T04:00:00Z,30.2513,-88.0778,7.56,9.28,1111122 
DISL,ioos:station:DISL:DISL:1,2009-12-05T04:30:00Z,30.2513,-88.0778,7.55,9.28,1111122 
DISL,ioos:station:DISL:DISL:1,2009-12-05T05:00:00Z,30.2513,-88.0778,7.09,9.25,1111122 
DISL,ioos:station:DISL:DISL:1,2009-12-05T05:30:00Z,30.2513,-88.0778,7.36,9.35,1111122 
DISL,ioos:station:DISL:DISL:1,2009-12-05T06:00:00Z,30.2513,-88.0778,7.55,9.31,1111122 
DISL,ioos:station:DISL:DISL:1,2009-12-05T06:30:00Z,30.2513,-88.0778,7.27,9.39,1111122 
DISL,ioos:station:DISL:DISL:1,2009-12-05T07:00:00Z,30.2513,-88.0778,6.992,9.51,1111122 
DISL,ioos:station:DISL:DISL:1,2009-12-05T07:30:00Z,30.2513,-88.0778,6.927,9.35,1111122 
DISL,ioos:station:DISL:DISL:1,2009-12-05T08:00:00Z,30.2513,-88.0778,7.16,9.54,1111122 
DISL,ioos:station:DISL:DISL:1,2009-12-05T08:30:00Z,30.2513,-88.0778,6.955,9.51,1111122 
DISL,ioos:station:DISL:DISL:1,2009-12-05T09:00:00Z,30.2513,-88.0778,7.08,9.34,1111122 
DISL,ioos:station:DISL:DISL:1,2009-12-05T09:30:00Z,30.2513,-88.0778,6.931,9.29,1111122 
DISL,ioos:station:DISL:DISL:1,2009-12-05T10:00:00Z,30.2513,-88.0778,6.621,9.29,1111122 
DISL,ioos:station:DISL:DISL:1,2009-12-05T10:30:00Z,30.2513,-88.0778,6.717,9.32,1111122 
DISL,ioos:station:DISL:DISL:1,2009-12-05T11:00:00Z,30.2513,-88.0778,6.627,9.32,1111122 
DISL,ioos:station:DISL:DISL:1,2009-12-05T11:30:00Z,30.2513,-88.0778,6.152,9.36,1111122 
DISL,ioos:station:DISL:DISL:1,2009-12-05T12:00:00Z,30.2513,-88.0778,6.366,9.29,1111122 
DISL,ioos:station:DISL:DISL:1,2009-12-05T12:30:00Z,30.2513,-88.0778,5.785,9.52,1111122 
DISL,ioos:station:DISL:DISL:1,2009-12-05T13:00:00Z,30.2513,-88.0778,5.909,9.44,1111122 
DISL,ioos:station:DISL:DISL:1,2009-12-05T13:30:00Z,30.2513,-88.0778,5.956,9.5,1111122 
DISL,ioos:station:DISL:DISL:1,2009-12-05T14:00:00Z,30.2513,-88.0778,5.771,9.5,1111122 
DISL,ioos:station:DISL:DISL:1,2009-12-05T14:30:00Z,30.2513,-88.0778,5.554,9.54,1111122 
DISL,ioos:station:DISL:DISL:1,2009-12-05T15:00:00Z,30.2513,-88.0778,5.554,9.48,1111122 
DISL,ioos:station:DISL:DISL:1,2009-12-05T15:30:00Z,30.2513,-88.0778,4.943,9.51,1111122 
DISL,ioos:station:DISL:DISL:1,2009-12-05T16:00:00Z,30.2513,-88.0778,5.315,9.52,1111122 
DISL,ioos:station:DISL:DISL:1,2009-12-05T16:30:00Z,30.2513,-88.0778,5.297,9.54,1111122 
DISL,ioos:station:DISL:DISL:1,2009-12-05T17:00:00Z,30.2513,-88.0778,5.232,9.53,1111122 
DISL,ioos:station:DISL:DISL:1,2009-12-05T17:30:00Z,30.2513,-88.0778,5.118,9.65,1111122 
DISL,ioos:station:DISL:DISL:1,2009-12-05T18:00:00Z,30.2513,-88.0778,5.182,9.59,1111122 
DISL,ioos:station:DISL:DISL:1,2009-12-05T18:30:00Z,30.2513,-88.0778,5.139,9.53,1111122 
DISL,ioos:station:DISL:DISL:1,2009-12-05T19:00:00Z,30.2513,-88.0778,5.221,9.37,1111122 
DISL,ioos:station:DISL:DISL:1,2009-12-05T19:30:00Z,30.2513,-88.0778,5.22,9.38,1111122 
DISL,ioos:station:DISL:DISL:1,2009-12-05T20:00:00Z,30.2513,-88.0778,5.242,9.37,1111122 
DISL,ioos:station:DISL:DISL:1,2009-12-05T20:30:00Z,30.2513,-88.0778,5.351,9.25,1111122 
DISL,ioos:station:DISL:DISL:1,2009-12-05T21:00:00Z,30.2513,-88.0778,5.358,8.96,1111122 
DISL,ioos:station:DISL:DISL:1,2009-12-05T21:30:00Z,30.2513,-88.0778,5.459,9.18,1111122 
DISL,ioos:station:DISL:DISL:1,2009-12-05T22:00:00Z,30.2513,-88.0778,5.506,9.55,1111122 
DISL,ioos:station:DISL:DISL:1,2009-12-05T22:30:00Z,30.2513,-88.0778,5.611,9.93,1111122 
DISL,ioos:station:DISL:DISL:1,2009-12-05T23:00:00Z,30.2513,-88.0778,5.746,10.22,1111122 
DISL,ioos:station:DISL:DISL:1,2009-12-05T23:30:00Z,30.2513,-88.0778,5.834,10.26,1111122 
DISL,ioos:station:DISL:DISL:1,2009-12-06T00:00:00Z,30.2513,-88.0778,5.922,10.1,1111122 
DISL,ioos:station:DISL:DISL:1,2009-12-06T00:30:00Z,30.2513,-88.0778,5.982,9.41,1111122 
DISL,ioos:station:DISL:DISL:1,2009-12-06T01:00:00Z,30.2513,-88.0778,6.081,7.92,1111122 
DISL,ioos:station:DISL:DISL:1,2009-12-06T01:30:00Z,30.2513,-88.0778,6.166,7.26,1111122 
DISL,ioos:station:DISL:DISL:1,2009-12-06T02:00:00Z,30.2513,-88.0778,6.233,7.04,1111122 
DISL,ioos:station:DISL:DISL:1,2009-12-06T02:30:00Z,30.2513,-88.0778,6.37,6.94,1111122 
DISL,ioos:station:DISL:DISL:1,2009-12-06T03:00:00Z,30.2513,-88.0778,6.521,6.68,1111122 
DISL,ioos:station:DISL:DISL:1,2009-12-06T03:30:00Z,30.2513,-88.0778,6.578,6.9,1111122 
DISL,ioos:station:DISL:DISL:1,2009-12-06T04:00:00Z,30.2513,-88.0778,6.747,6.81,1111122 
DISL,ioos:station:DISL:DISL:1,2009-12-06T04:30:00Z,30.2513,-88.0778,6.833,7.76,1111122 
DISL,ioos:station:DISL:DISL:1,2009-12-06T05:00:00Z,30.2513,-88.0778,6.934,8.34,1111122 
DISL,ioos:station:DISL:DISL:1,2009-12-06T05:30:00Z,30.2513,-88.0778,6.878,7.87,1111122 
DISL,ioos:station:DISL:DISL:1,2009-12-06T06:00:00Z,30.2513,-88.0778,6.945,9.86,1111122 
DISL,ioos:station:DISL:DISL:1,2009-12-06T06:30:00Z,30.2513,-88.0778,7.04,9.99,1111122 
DISL,ioos:station:DISL:DISL:1,2009-12-06T07:00:00Z,30.2513,-88.0778,6.911,10.03,1111122 
DISL,ioos:station:DISL:DISL:1,2009-12-06T07:30:00Z,30.2513,-88.0778,6.837,9.85,1111122 
DISL,ioos:station:DISL:DISL:1,2009-12-06T08:00:00Z,30.2513,-88.0778,6.746,9.68,1111122 
DISL,ioos:station:DISL:DISL:1,2009-12-06T08:30:00Z,30.2513,-88.0778,6.579,9.49,1111122 
DISL,ioos:station:DISL:DISL:1,2009-12-06T09:00:00Z,30.2513,-88.0778,6.744,9.36,1111122 
DISL,ioos:station:DISL:DISL:1,2009-12-06T09:30:00Z,30.2513,-88.0778,6.602,9.36,1111122 
DISL,ioos:station:DISL:DISL:1,2009-12-06T10:00:00Z,30.2513,-88.0778,6.485,9.38,1111122 
DISL,ioos:station:DISL:DISL:1,2009-12-06T10:30:00Z,30.2513,-88.0778,6.234,9.39,1111122 
DISL,ioos:station:DISL:DISL:1,2009-12-06T11:00:00Z,30.2513,-88.0778,6.259,9.39,1111122 
DISL,ioos:station:DISL:DISL:1,2009-12-06T11:30:00Z,30.2513,-88.0778,6.213,9.37,1111122 
DISL,ioos:station:DISL:DISL:1,2009-12-06T12:00:00Z,30.2513,-88.0778,5.998,9.36,1111122 
DISL,ioos:station:DISL:DISL:1,2009-12-06T12:30:00Z,30.2513,-88.0778,5.843,9.33,1111122 
DISL,ioos:station:DISL:DISL:1,2009-12-06T13:00:00Z,30.2513,-88.0778,5.891,9.25,1111122 
DISL,ioos:station:DISL:DISL:1,2009-12-06T13:30:00Z,30.2513,-88.0778,5.898,9.28,1111122 
DISL,ioos:station:DISL:DISL:1,2009-12-06T14:00:00Z,30.2513,-88.0778,5.869,9.21,1111122 
DISL,ioos:station:DISL:DISL:1,2009-12-06T14:30:00Z,30.2513,-88.0778,5.496,9.27,1111122 
DISL,ioos:station:DISL:DISL:1,2009-12-06T15:00:00Z,30.2513,-88.0778,5.68,9.37,1111122 
DISL,ioos:station:DISL:DISL:1,2009-12-06T15:30:00Z,30.2513,-88.0778,5.536,9.37,1111122 
DISL,ioos:station:DISL:DISL:1,2009-12-06T16:00:00Z,30.2513,-88.0778,5.524,9.32,1111122 